This is the latest recevied weather packets stored in our database for station/object EA5GTE-12. If no packets are shown the sender has not sent any weather packets the latest 10 day(s).
| Time | Temp. | Humidity | Pressure | Rain* | Wind** | Luminosity | Snow |
|---|---|---|---|---|---|---|---|
| 1788212315 | 22.78° C | 49% | 942 hPa | - | - | - | - |
| 1788211415 | 23.33° C | 49% | 941.9 hPa | - | - | - | - |
| 1788210515 | 23.33° C | 51% | 941.7 hPa | - | - | - | - |
| 1788209615 | 23.33° C | 54% | 941.8 hPa | - | - | - | - |
| 1788208715 | 23.89° C | 53% | 941.4 hPa | - | - | - | - |
| 1788207815 | 24.44° C | 50% | 941.1 hPa | - | - | - | - |
| 1788206915 | 25° C | 46% | 940.8 hPa | - | - | - | - |
| 1788206015 | 25.56° C | 45% | 940.5 hPa | - | - | - | - |
| 1788205115 | 26.11° C | 41% | 940.2 hPa | - | - | - | - |
| 1788204215 | 26.11° C | 38% | 939.9 hPa | - | - | - | - |
| 1788203315 | 26.67° C | 35% | 939.6 hPa | - | - | - | - |
| 1788202415 | 27.78° C | 30% | 939.6 hPa | - | - | - | - |
| 1788201515 | 28.33° C | 26% | 939.5 hPa | - | - | - | - |
| 1788200615 | 29.44° C | 24% | 939.1 hPa | - | - | - | - |
| 1788199715 | 31.11° C | 20% | 938.9 hPa | - | - | - | - |
| 1788198815 | 32.78° C | 18% | 939 hPa | - | - | - | - |
| 1788197914 | 34.44° C | 15% | 938.9 hPa | - | - | - | - |
| 1788197014 | 35° C | 14% | 938.9 hPa | - | - | - | - |
| 1788196114 | 35.56° C | 13% | 938.8 hPa | - | - | - | - |
| 1788195214 | 36.67° C | 12% | 938.7 hPa | - | - | - | - |
| 1788194314 | 37.22° C | 12% | 938.8 hPa | - | - | - | - |
| 1788192701 | 39.44° C | 10% | 938.9 hPa | - | - | - | - |
| 1788192516 | 39.44° C | 10% | 938.9 hPa | - | - | - | - |
| 1788191615 | 40° C | 10% | 939 hPa | - | - | - | - |
| 1788190715 | 38.89° C | 11% | 939.1 hPa | - | - | - | - |
* Rain since midnight (hover to see other rain measurements)
** Current wind speed in m/s (hover to see current wind gust speed)